[[{"header":{"parameterUnit":"m.s-1","parameterCategory":1,"la1":30.2991,"la2":30.254,"lo1":-89.0895,"lo2":-89.0444,"dy":0.0017,"dx":0.0017,"nx":28,"ny":28,"refTime":"2024-10-18T03:00:00:Z","depth":0,"parameterNumber":2,"parameterNumberName":"U-component_of_WINDS"},"data":[0,0,0,0,0,0,0,0,0,0,0,0,0,0,0,0,0,0,0,0,0,0,0,0,0,0,0,0,0,0,0,0,0,0,0,0,0,0,0,0,0,0,0,0,0,0,0,0,0,0,0,0,0,0,0,0,0,0,-5.8055,-5.8056,0,-5.8143,-5.8144,-5.8145,-5.7972,-5.7966,-5.796,-5.7955,-5.8047,-5.8054,-5.8062,0,0,0,0,0,0,0,0,0,0,0,0,0,-5.7738,-5.7744,-5.8055,-5.8056,-5.8057,-5.8142,-5.8144,-5.8145,-5.7973,-5.7966,-5.7959,-5.7953,-5.8044,-5.8053,-5.8063,0,0,0,0,0,0,0,0,0,0,0,0,0,-5.7856,-5.7747,-5.8054,-5.7981,-5.7976,-5.8142,-5.8144,-5.8145,-5.7974,-5.7966,-5.7957,-5.7949,-5.8041,-5.8052,-5.8064,-5.8306,0,0,-5.8099,-5.8104,0,0,0,0,0,0,0,0,-5.7849,-5.7867,-5.7991,-5.7987,-5.7981,-5.8037,-5.8065,-5.8199,-5.7976,-5.7975,-5.7955,-5.7945,-5.8051,-5.8061,-5.8096,-5.831,-5.8314,-5.81,-5.8107,-5.8112,-5.8116,0,0,0,0,0,0,0,-5.7841,-5.7863,-5.8089,-5.7993,-5.7987,-5.7944,-5.7951,-5.809,-5.806,-5.7974,-5.7962,-5.7975,-5.8046,-5.8085,-5.8097,-5.8316,-5.81,-5.811,-5.8117,-5.8122,-5.873,-5.8739,0,0,0,0,0,0,-5.7842,-5.7857,-5.8087,-5.8092,-5.7892,-5.7957,-5.7965,-5.8028,-5.8058,-5.8054,-5.7982,-5.7966,-5.807,-5.8084,-5.81,-5.8383,-5.8112,-5.8123,-5.813,-5.8721,-5.8732,-5.8742,0,0,0,0,0,0,-5.7836,-5.7864,-5.8083,-5.7971,-5.7996,-5.7971,-5.8043,-5.8034,-5.8073,-5.8063,-5.8057,-5.8028,-5.8064,-5.8083,-5.8255,-5.8384,-5.8128,-5.8139,-5.871,-5.8725,-5.8737,-5.8954,0,0,0,0,0,0,-5.7828,-5.7863,-5.7955,-5.7975,-5.8002,-5.8238,-5.8051,-5.8042,-5.8093,-5.8074,-5.8104,-5.8101,-5.8058,-5.8239,-5.8267,-5.8395,-5.8148,-5.8699,-5.8717,-5.8733,-5.8935,-5.8974,-5.9006,0,0,0,0,0,-5.7817,-5.8013,-5.7961,-5.7989,-5.8117,-5.8246,-5.8262,-5.8208,-5.8105,-5.8196,-5.819,-5.81,-5.8366,-5.8258,-5.8288,-5.8422,-5.869,-5.8712,-5.8732,-5.8919,-5.8966,-5.9005,0,0,0,0,0,0,-5.8011,-5.8015,-5.7956,-5.8165,-5.8206,-5.8216,-5.8331,-5.8259,-5.8331,-5.831,-5.8241,-5.8249,-5.8435,-5.8445,-5.8325,-5.8657,-5.851,-5.8538,-5.8643,-5.8687,-5.8722,-5.8715,-5.8158,0,0,0,0,0,-5.8078,-5.8182,-5.818,-5.8364,-5.8388,-5.8357,-5.8411,-5.8365,-5.8405,-5.8422,-5.8428,-5.8471,-5.8563,-5.8626,-5.8711,-5.8936,-5.8939,-5.9043,-5.9078,-5.9108,-5.9132,-5.925,-5.9296,-5.881,-5.881,-5.881,0,0,-5.8217,-5.8232,-5.8303,-5.8403,-5.843,-5.8539,-5.8372,-5.8495,-5.8575,-5.8441,-5.8603,-5.8609,-5.8652,-5.8852,-5.894,-5.8866,-5.9267,-5.9134,-5.9157,-5.9166,-5.9276,-5.9322,-5.9363,-5.8824,-5.8822,-5.882,0,0,-5.8527,-5.855,-5.8704,-5.8734,-5.8776,-5.8754,-5.8791,-5.8812,-5.8811,-5.8972,-5.8873,-5.8967,-5.9129,-5.9163,-5.9201,-5.9522,-5.9442,-5.9552,-5.9737,-5.9853,-5.9891,-5.9925,-6.0038,-6.0079,-5.9577,-5.9577,-5.9578,0,-5.8695,-5.8855,-5.8793,-5.8923,-5.8969,-5.8852,-5.9007,-5.904,-5.9108,-5.9143,-5.906,-5.9258,-5.9279,-5.9484,-5.9562,-5.9598,-5.9637,-5.9548,-5.9891,-5.9924,-5.9954,-6.0061,-6.0104,-5.959,-5.9589,-5.9587,-5.9586,0,-5.9059,-5.9172,-5.9292,-5.9359,-5.9419,-5.9562,-5.9521,-5.9589,-5.9539,-5.9525,-5.969,-5.9711,-5.9797,-5.9842,-5.9795,-6.0041,-5.9993,-5.9902,-5.9753,-6.0015,-6.0114,-6.0154,-5.9609,-5.9604,-5.96,-5.9597,0,0,-5.9493,-5.9523,-5.9568,-5.9597,-5.9634,-5.972,-5.9856,-5.9939,-5.9999,-6.005,-6.0162,-6.03,-6.0215,-6.0259,-6.0214,-6.0317,-6.0567,-6.0212,-6.0212,-6.0276,-6.0837,-6.0904,-6.0953,-6.0515,-6.0522,-6.0528,-6.0833,0,-5.9798,-6.0032,-5.998,-6.0211,-6.0313,-6.0202,-6.0321,-6.0357,-6.0347,-6.0433,-6.0422,-6.0521,-6.0402,-6.0428,-6.0524,-6.0517,-6.0679,-6.0494,-6.0617,-6.0623,-6.0609,-6.1005,-6.1077,-6.1363,-6.0871,-6.0878,-6.0883,0,-6.0186,-6.025,-6.0491,-6.0509,-6.055,-6.0658,-6.0729,-6.0812,-6.085,-6.0836,-6.0885,-6.082,-6.0954,-6.0805,-6.0989,-6.0864,-6.0911,-6.0916,-6.0925,-6.0934,-6.0768,-6.1023,-6.1453,-6.1496,-6.0943,-6.0939,-6.0934,0,-6.0476,-6.0623,-6.0785,-6.0813,-6.084,-6.0918,-6.0933,-6.0962,-6.1015,-6.1077,-6.111,-6.1188,-6.1231,-6.1293,-6.125,-6.1146,-6.1441,-6.1288,-6.1432,-6.1433,-6.1498,-6.1494,-6.1941,-6.1532,-6.1531,-6.153,-6.1529,0,-6.0822,-6.0973,-6.0916,-6.1016,-6.1181,-6.1119,-6.1285,-6.1287,-6.1314,-6.1411,-6.1321,-6.1415,-6.1354,-6.1443,-6.141,-6.1566,-6.1587,-6.1579,-6.1568,-6.1586,-6.1587,-6.1615,-6.1593,-6.1542,-6.1539,-6.1537,-6.1535,0,-6.1174,-6.1142,-6.1311,-6.1322,-6.1328,-6.145,-6.1458,-6.1551,-6.1534,-6.1659,-6.1685,-6.166,-6.1759,-6.1723,-6.183,-6.1808,-6.2006,-6.1971,-6.1994,-6.1984,-6.2129,-6.2115,-6.2608,-6.2669,-6.2223,-6.2227,-6.223,0,-6.1396,-6.1509,-6.1532,-6.159,-6.1611,-6.1707,-6.176,-6.1704,-6.1762,-6.1813,-6.1899,-6.1991,-6.2061,-6.2225,-6.2216,-6.2297,-6.2261,-6.2429,-6.2273,-6.2287,-6.2262,-6.2255,-6.2265,-6.2459,-6.2465,-6.2469,-6.2472,0,-6.1792,-6.177,-6.185,-6.1924,-6.199,-6.2046,-6.2094,-6.2147,-6.2093,-6.2163,-6.2263,-6.2318,-6.2426,-6.2517,-6.2589,-6.2604,-6.253,-6.2521,-6.2558,-6.2577,-6.2585,-6.2581,-6.2077,-6.251,-6.2506,-6.2503,-6.2501,-6.25,-6.2085,-6.2179,-6.2209,-6.23,-6.233,-6.2377,-6.2463,-6.2457,-6.254,-6.2622,-6.2584,-6.27,-6.2733,-6.2822,-6.2847,-6.2937,-6.2872,-6.2926,-6.294,-6.2953,-6.2971,-6.2572,-6.295,-6.2949,-6.2948,-6.2947,-6.2946,0,-6.2474,-6.2488,-6.2573,-6.2642,-6.2713,-6.2636,-6.2685,-6.275,-6.2852,-6.289,-6.296,-6.3074,-6.3162,-6.316,-6.3242,-6.3314,-6.3281,-6.3337,-6.333,-6.3334,-6.3026,-6.2984,-6.3361,-6.3361,-6.3361,-6.3361,-6.3361,-6.3361,-6.2686,-6.2841,-6.2823,-6.2992,-6.3004,-6.3116,-6.315,-6.3192,-6.3221,-6.3353,-6.3425,-6.3422,-6.3444,-6.3526,-6.3603,-6.36,-6.3633,-6.3702,-6.3686,-6.3397,-6.3356,-6.3317,-6.3278,-6.371,-6.371,-6.3986,-6.3989,-6.3991]},{"header":{"parameterUnit":"m.s-1","parameterCategory":1,"la1":30.2991,"la2":30.254,"lo1":-89.0895,"lo2":-89.0444,"dy":0.0017,"dx":0.0017,"nx":28,"ny":28,"refTime":"2024-10-18T03:00:00:Z","depth":0,"parameterNumber":3,"parameterNumberName":"V-component_of_WINDS"},"data":[0,0,0,0,0,0,0,0,0,0,0,0,0,0,0,0,0,0,0,0,0,0,0,0,0,0,0,0,0,0,0,0,0,0,0,0,0,0,0,0,0,0,0,0,0,0,0,0,0,0,0,0,0,0,0,0,0,0,-1.8878,-1.8877,0,-1.8859,-1.8858,-1.8858,-1.8843,-1.8843,-1.8842,-1.8842,-1.8822,-1.8821,-1.8821,0,0,0,0,0,0,0,0,0,0,0,0,0,-1.8898,-1.8897,-1.8878,-1.8877,-1.8877,-1.8859,-1.8858,-1.8858,-1.8843,-1.8843,-1.8842,-1.8842,-1.8822,-1.8821,-1.8821,0,0,0,0,0,0,0,0,0,0,0,0,0,-1.8885,-1.8897,-1.8878,-1.8867,-1.8866,-1.8859,-1.8858,-1.8858,-1.8843,-1.8843,-1.8842,-1.8842,-1.8822,-1.8821,-1.8821,-1.8821,0,0,-1.8819,-1.8818,0,0,0,0,0,0,0,0,-1.8886,-1.8884,-1.8869,-1.8868,-1.8867,-1.8853,-1.8858,-1.8846,-1.8843,-1.8852,-1.8842,-1.8842,-1.8832,-1.8831,-1.8827,-1.882,-1.882,-1.8819,-1.8818,-1.8818,-1.8818,0,0,0,0,0,0,0,-1.8886,-1.8885,-1.887,-1.8869,-1.8867,-1.8862,-1.886,-1.8855,-1.8843,-1.8851,-1.885,-1.8848,-1.8831,-1.8828,-1.8827,-1.8819,-1.8819,-1.8818,-1.8818,-1.8818,-1.8809,-1.8809,0,0,0,0,0,0,-1.8889,-1.8886,-1.8871,-1.8869,-1.8876,-1.8862,-1.886,-1.8857,-1.8843,-1.8841,-1.8848,-1.8847,-1.8829,-1.8828,-1.8826,-1.8824,-1.8818,-1.8817,-1.8817,-1.8809,-1.8809,-1.8809,0,0,0,0,0,0,-1.889,-1.8888,-1.8871,-1.8877,-1.8875,-1.8862,-1.8859,-1.8857,-1.8854,-1.8841,-1.8839,-1.8847,-1.8829,-1.8827,-1.8822,-1.8823,-1.8817,-1.8817,-1.8808,-1.8809,-1.8809,-1.8822,0,0,0,0,0,0,-1.889,-1.8888,-1.889,-1.8877,-1.8874,-1.8869,-1.886,-1.8857,-1.8853,-1.8852,-1.884,-1.8837,-1.8829,-1.8823,-1.8821,-1.8822,-1.8816,-1.8808,-1.8809,-1.8809,-1.8821,-1.8822,-1.8823,0,0,0,0,0,-1.8891,-1.8894,-1.889,-1.8888,-1.8876,-1.8869,-1.8867,-1.8857,-1.8853,-1.8854,-1.8845,-1.8838,-1.8823,-1.8823,-1.8821,-1.8822,-1.8808,-1.8808,-1.8809,-1.8821,-1.8822,-1.8823,0,0,0,0,0,0,-1.8907,-1.8893,-1.8887,-1.8887,-1.8879,-1.8866,-1.8867,-1.886,-1.8853,-1.8852,-1.884,-1.8837,-1.8833,-1.8827,-1.8826,-1.882,-1.8815,-1.8815,-1.8824,-1.8826,-1.8827,-1.8828,-1.8816,0,0,0,0,0,-1.891,-1.8907,-1.8894,-1.8895,-1.8891,-1.8879,-1.8876,-1.8869,-1.8861,-1.8857,-1.8848,-1.884,-1.8833,-1.8829,-1.8822,-1.882,-1.8816,-1.8819,-1.882,-1.8821,-1.8821,-1.8817,-1.8818,-1.881,-1.881,-1.881,0,0,-1.8918,-1.8909,-1.8908,-1.8898,-1.8891,-1.8886,-1.8877,-1.8873,-1.8869,-1.8857,-1.8851,-1.8844,-1.8833,-1.8829,-1.8827,-1.8824,-1.8822,-1.8822,-1.8823,-1.8822,-1.8818,-1.8818,-1.8819,-1.881,-1.881,-1.881,0,0,-1.8928,-1.8922,-1.8921,-1.8914,-1.8903,-1.8895,-1.8895,-1.8883,-1.8877,-1.8872,-1.8861,-1.8856,-1.8845,-1.8837,-1.8832,-1.8836,-1.8829,-1.8835,-1.884,-1.8836,-1.8837,-1.8838,-1.8838,-1.8838,-1.8835,-1.8835,-1.8835,0,-1.8938,-1.8931,-1.8921,-1.8917,-1.8912,-1.89,-1.8897,-1.8891,-1.8879,-1.8875,-1.8872,-1.8856,-1.8849,-1.8841,-1.8842,-1.8839,-1.8837,-1.8836,-1.8838,-1.8838,-1.8839,-1.8838,-1.8839,-1.8835,-1.8835,-1.8835,-1.8835,0,-1.8943,-1.8938,-1.8939,-1.8927,-1.8922,-1.8919,-1.8906,-1.8902,-1.8895,-1.8886,-1.8879,-1.8869,-1.8859,-1.8857,-1.885,-1.8848,-1.8846,-1.884,-1.8835,-1.884,-1.884,-1.884,-1.8836,-1.8836,-1.8836,-1.8836,0,0,-1.8964,-1.8945,-1.8945,-1.8939,-1.8925,-1.8921,-1.8916,-1.8906,-1.8902,-1.8893,-1.8888,-1.8878,-1.8872,-1.8866,-1.8858,-1.8855,-1.8856,-1.8849,-1.8849,-1.885,-1.8851,-1.8854,-1.8855,-1.8851,-1.8851,-1.8851,-1.8851,0,-1.8972,-1.8963,-1.8952,-1.8947,-1.8941,-1.8929,-1.8924,-1.8914,-1.8906,-1.8899,-1.8889,-1.8882,-1.8876,-1.8871,-1.8868,-1.8857,-1.8856,-1.8857,-1.8845,-1.8845,-1.8847,-1.8855,-1.8859,-1.886,-1.8851,-1.8851,-1.8851,0,-1.8979,-1.8971,-1.8965,-1.895,-1.8947,-1.8943,-1.8932,-1.8926,-1.8914,-1.8908,-1.89,-1.889,-1.8883,-1.8878,-1.8867,-1.8867,-1.8861,-1.8855,-1.8855,-1.8853,-1.8848,-1.8852,-1.886,-1.886,-1.8851,-1.8851,-1.8851,0,-1.8993,-1.898,-1.8974,-1.8969,-1.8952,-1.8949,-1.8942,-1.893,-1.8924,-1.8914,-1.8909,-1.8898,-1.8892,-1.8883,-1.887,-1.8868,-1.886,-1.8854,-1.8853,-1.8853,-1.8852,-1.8852,-1.8858,-1.8849,-1.8849,-1.8849,-1.8849,0,-1.9002,-1.8999,-1.898,-1.8977,-1.8971,-1.8958,-1.8953,-1.8944,-1.8933,-1.8927,-1.8915,-1.8909,-1.8893,-1.8884,-1.8874,-1.8865,-1.8863,-1.8857,-1.8854,-1.8857,-1.8858,-1.8853,-1.8852,-1.8849,-1.8849,-1.8849,-1.8849,0,-1.9017,-1.9005,-1.8997,-1.8981,-1.8977,-1.8973,-1.8959,-1.8954,-1.8944,-1.8936,-1.8933,-1.8917,-1.8906,-1.8892,-1.8877,-1.887,-1.8862,-1.8858,-1.8866,-1.8864,-1.8864,-1.8864,-1.8866,-1.8865,-1.8858,-1.8858,-1.8858,0,-1.9023,-1.902,-1.9003,-1.8998,-1.899,-1.8982,-1.8976,-1.8962,-1.8955,-1.894,-1.8936,-1.8924,-1.8914,-1.8897,-1.8883,-1.8871,-1.8867,-1.8868,-1.8865,-1.8867,-1.8865,-1.8865,-1.8864,-1.8869,-1.8869,-1.8869,-1.887,0,-1.9035,-1.9028,-1.902,-1.9008,-1.9,-1.8991,-1.898,-1.8976,-1.896,-1.8953,-1.8941,-1.8933,-1.8917,-1.8905,-1.889,-1.8881,-1.8872,-1.8871,-1.887,-1.8873,-1.8877,-1.8873,-1.8868,-1.8871,-1.8871,-1.8871,-1.887,-1.887,-1.9044,-1.904,-1.9027,-1.9017,-1.9007,-1.8997,-1.8991,-1.898,-1.8971,-1.8957,-1.8949,-1.8937,-1.8923,-1.8902,-1.8893,-1.8883,-1.888,-1.8879,-1.8878,-1.8878,-1.8878,-1.8879,-1.8881,-1.888,-1.888,-1.888,-1.888,0,-1.9054,-1.9045,-1.9035,-1.9021,-1.9012,-1.9005,-1.8992,-1.8985,-1.8975,-1.8963,-1.8953,-1.8938,-1.8926,-1.8911,-1.8897,-1.8891,-1.8887,-1.8888,-1.8888,-1.8886,-1.8883,-1.8885,-1.8892,-1.8892,-1.8892,-1.8892,-1.8892,-1.8892,-1.9058,-1.905,-1.9042,-1.9028,-1.9018,-1.9007,-1.9,-1.899,-1.898,-1.8964,-1.8954,-1.8944,-1.893,-1.8915,-1.8902,-1.8898,-1.8893,-1.8895,-1.889,-1.8887,-1.8886,-1.8885,-1.8887,-1.8895,-1.8895,-1.8894,-1.8894,-1.8894]}]]